GW2473 Weather Reports


Display with metric or nautical units.
time (UTC)temp
F
wind
direction
speed
MPH
gust
MPH
rain 1hr
in
rain 24hr
in
rain mn
in
humidity
%
barometer
mb
20260510033516 45 192 0.0 3.0 0.00 0.40 0.40 91 1010.2
20260510033034 45 191 2.0 3.0 0.00 0.40 0.40 91 1010.2
20260510032517 45 191 1.0 2.0 0.00 0.40 0.40 91 1010.3
20260510032017 45 191 0.0 2.0 0.00 0.40 0.40 91 1010.2
20260510031544 46 191 1.0 3.0 0.00 0.40 0.40 91 1010.1
20260510031014 46 191 1.0 3.0 0.00 0.40 0.40 91 1010.2
20260510030517 46 191 1.0 3.0 0.00 0.40 0.40 91 1010.2
20260510030035 46 190 2.0 3.0 0.00 0.40 0.40 91 1010.1
20260510025515 47 192 0.0 2.0 0.00 0.40 0.40 91 1010.2
20260510025018 47 0 0.0 0.0 0.00 0.40 0.40 91 1010.1
20260510024543 47 0 0.0 1.0 0.00 0.40 0.40 91 1010.1
20260510024017 47 0 0.0 4.0 0.00 0.40 0.40 91 1010.0
20260510023517 47 0 0.0 4.0 0.00 0.40 0.40 91 1010.1
20260510023030 46 0 1.0 4.0 0.00 0.40 0.40 91 1010.2
20260510022519 46 186 1.0 3.0 0.00 0.40 0.40 90 1010.2
20260510022015 46 199 1.0 3.0 0.00 0.40 0.40 90 1010.3
20260510021531 46 183 1.0 3.0 0.00 0.40 0.40 90 1010.2
20260510021016 47 188 1.0 3.0 0.00 0.40 0.40 90 1010.2
20260510020515 47 188 1.0 2.0 0.00 0.40 0.40 90 1010.4
20260510020030 47 199 0.0 2.0 0.00 0.40 0.40 90 1010.3
20260510015515 47 199 0.0 2.0 0.00 0.40 0.40 90 1010.3
20260510015014 47 0 0.0 2.0 0.00 0.40 0.40 90 1010.1
20260510014534 47 0 0.0 2.0 0.00 0.40 0.40 90 1010.1
20260510014014 47 0 0.0 0.0 0.00 0.40 0.40 90 1010.0
20260510013517 47 0 0.0 2.0 0.00 0.40 0.40 90 1010.2
20260510013036 48 0 0.0 2.0 0.00 0.40 0.40 89 1010.1
20260510012514 48 0 0.0 2.0 0.00 0.40 0.40 90 1010.2
20260510012016 48 198 1.0 3.0 0.00 0.40 0.40 89 1010.2
20260510011543 48 172 1.0 3.0 0.00 0.40 0.40 89 1010.0
20260510011017 48 214 1.0 3.0 0.00 0.40 0.40 89 1009.9
20260510010515 49 197 2.0 3.0 0.00 0.40 0.40 89 1009.7
20260510010035 49 191 1.0 4.0 0.00 0.40 0.40 88 1010.1
20260510005515 49 192 1.0 4.0 0.00 0.40 0.40 88 1010.0
20260510005016 49 192 3.0 4.0 0.00 0.40 0.40 88 1010.0
20260510004532 49 202 1.0 3.0 0.00 0.40 0.40 88 1010.0
20260510004017 50 199 1.0 5.0 0.00 0.40 0.40 88 1009.9
20260510003517 50 195 2.0 5.0 0.00 0.40 0.40 88 1009.8
20260510003055 50 178 2.0 4.0 0.00 0.40 0.40 87 1009.8
20260510002520 51 185 1.0 3.0 0.00 0.40 0.40 87 1009.7
20260510002014 51 185 1.0 3.0 0.00 0.40 0.40 86 1009.6
20260510001539 52 188 1.0 3.0 0.00 0.40 0.40 85 1009.4
20260510001016 53 188 1.0 3.0 0.00 0.40 0.40 84 1009.3
20260510000515 53 205 2.0 3.0 0.00 0.40 0.40 83 1009.3
20260510000040 54 198 1.0 5.0 0.00 0.40 0.40 82 1009.1
20260509235518 55 212 2.0 5.0 0.00 0.40 0.40 80 1009.1
20260509235017 55 210 1.0 4.0 0.00 0.40 0.40 79 1009.1
20260509234543 55 217 1.0 5.0 0.00 0.40 0.40 79 1009.2
20260509234018 56 219 0.0 5.0 0.00 0.40 0.40 79 1009.2
20260509233516 56 257 0.0 5.0 0.00 0.40 0.40 79 1009.1
20260509233031 56 0 0.0 4.0 0.00 0.40 0.40 79 1009.0
20260509232515 56 22 0.0 5.0 0.00 0.40 0.40 78 1008.8
20260509232017 56 258 1.0 8.0 0.00 0.40 0.40 78 1008.8
20260509231540 56 0 1.0 8.0 0.00 0.40 0.40 78 1008.6
20260509231017 56 177 1.0 5.0 0.00 0.40 0.40 79 1008.4
20260509230516 56 0 1.0 5.0 0.00 0.40 0.40 79 1008.6
20260509230034 56 202 1.0 6.0 0.00 0.40 0.40 80 1008.6
20260509225514 56 199 2.0 6.0 0.00 0.40 0.40 79 1008.7
20260509225014 56 229 0.0 6.0 0.00 0.40 0.40 80 1008.8
20260509224534 56 186 2.0 6.0 0.00 0.40 0.40 81 1008.8
20260509224017 56 221 2.0 6.0 0.00 0.40 0.40 81 1008.8
20260509223517 55 192 0.0 6.0 0.00 0.40 0.40 82 1008.9
20260509223031 55 292 2.0 6.0 0.00 0.40 0.40 81 1008.9
20260509222518 55 194 1.0 4.0 0.00 0.40 0.40 81 1008.9
20260509222016 55 89 1.0 4.0 0.00 0.40 0.40 82 1009.0
20260509221535 55 0 0.0 2.0 0.00 0.40 0.40 82 1009.0
20260509221015 55 0 0.0 7.0 0.00 0.40 0.40 83 1009.0
20260509220514 54 0 2.0 7.0 0.00 0.40 0.40 83 1009.2
20260509220036 54 304 2.0 9.0 0.00 0.40 0.40 83 1009.3
20260509215517 54 173 1.0 9.0 0.00 0.40 0.40 83 1009.4
20260509215017 54 325 2.0 9.0 0.00 0.40 0.40 83 1009.4
20260509214532 54 302 2.0 9.0 0.00 0.40 0.40 83 1009.4
20260509214018 54 330 3.0 10.0 0.00 0.40 0.40 83 1009.5
20260509213518 54 49 5.0 10.0 0.00 0.40 0.40 83 1009.5
20260509213032 54 13 3.0 8.0 0.00 0.40 0.40 84 1009.5
20260509212518 54 281 2.0 10.0 0.00 0.40 0.40 84 1009.6
20260509212017 54 332 4.0 10.0 0.00 0.40 0.40 84 1009.6
20260509211538 53 0 3.0 8.0 0.00 0.40 0.40 84 1009.6
20260509211014 53 316 3.0 8.0 0.01 0.40 0.40 85 1009.5
20260509210515 53 302 2.0 7.0 0.02 0.40 0.40 85 1009.4
20260509210032 53 305 1.0 4.0 0.02 0.40 0.40 86 1009.4
20260509205514 53 275 0.0 6.0 0.02 0.40 0.40 86 1009.3
20260509205018 52 0 2.0 6.0 0.03 0.40 0.40 86 1009.4
20260509204534 52 264 2.0 5.0 0.03 0.40 0.40 87 1009.4
20260509204018 52 162 1.0 5.0 0.03 0.40 0.40 87 1009.5
20260509203514 51 0 1.0 5.0 0.03 0.40 0.40 87 1009.7
20260509203036 51 151 1.0 7.0 0.04 0.40 0.40 87 1009.8
20260509202515 51 143 2.0 7.0 0.04 0.40 0.40 87 1009.8
20260509202016 51 301 0.0 6.0 0.05 0.40 0.40 87 1010.0
20260509201530 51 336 1.0 7.0 0.06 0.40 0.40 87 1009.9
20260509201014 51 302 2.0 8.0 0.06 0.39 0.39 86 1009.9
20260509200515 51 306 3.0 8.0 0.07 0.38 0.38 87 1010.0
20260509200030 51 0 1.0 8.0 0.08 0.38 0.38 87 1009.9
20260509195518 51 171 2.0 8.0 0.08 0.37 0.37 87 1009.9
20260509195016 51 261 1.0 12.0 0.09 0.37 0.37 87 1010.0
20260509194536 51 253 3.0 12.0 0.10 0.37 0.37 87 1010.0
20260509194016 51 0 2.0 10.0 0.11 0.37 0.37 87 1010.1
20260509193515 51 163 3.0 10.0 0.12 0.37 0.37 86 1010.2
20260509193034 51 126 1.0 10.0 0.12 0.36 0.36 86 1010.2
20260509192518 51 239 3.0 8.0 0.13 0.36 0.36 86 1010.1
20260509192017 51 250 2.0 8.0 0.13 0.35 0.35 86 1010.1
20260509191532 51 163 2.0 8.0 0.12 0.34 0.34 86 1010.3
20260509191017 51 277 1.0 7.0 0.11 0.32 0.32 86 1010.3
20260509190514 51 203 2.0 7.0 0.10 0.31 0.31 86 1010.6
20260509190041 51 182 2.0 7.0 0.10 0.30 0.30 87 1010.6
20260509185515 51 0 2.0 8.0 0.09 0.29 0.29 87 1010.8
20260509185015 51 223 3.0 8.0 0.09 0.28 0.28 86 1011.0
20260509184536 51 209 2.0 8.0 0.08 0.27 0.27 86 1010.8
20260509184014 51 332 3.0 10.0 0.07 0.26 0.26 86 1010.8
20260509183514 51 320 2.0 10.0 0.06 0.25 0.25 86 1010.7
20260509183042 51 208 1.0 7.0 0.05 0.24 0.24 86 1010.8
20260509182518 51 0 3.0 7.0 0.04 0.23 0.23 86 1010.6
20260509182015 52 222 1.0 9.0 0.03 0.22 0.22 86 1010.6
20260509181543 52 211 2.0 11.0 0.03 0.22 0.22 86 1010.8
20260509181015 52 163 2.0 11.0 0.02 0.21 0.21 86 1010.7
20260509180518 52 222 2.0 9.0 0.01 0.20 0.20 86 1010.8
20260509180032 52 0 2.0 12.0 0.02 0.20 0.20 86 1010.7
20260509175515 52 208 4.0 12.0 0.02 0.26 0.20 86 1010.8
20260509175015 52 217 2.0 7.0 0.01 0.25 0.19 86 1010.8
20260509174535 52 242 1.0 7.0 0.01 0.25 0.19 86 1010.7
20260509174015 52 156 2.0 7.0 0.01 0.25 0.19 86 1010.7
20260509173514 52 0 3.0 10.0 0.02 0.25 0.19 86 1010.6
20260509173035 52 261 2.0 10.0 0.02 0.25 0.19 86 1010.6
20260509172514 52 209 2.0 10.0 0.02 0.25 0.19 86 1010.6
20260509172017 52 235 3.0 10.0 0.02 0.25 0.19 86 1010.6
20260509171535 52 271 1.0 6.0 0.02 0.25 0.19 86 1010.6
20260509171015 52 232 1.0 9.0 0.02 0.25 0.19 86 1010.7
20260509170515 52 246 3.0 9.0 0.02 0.25 0.19 86 1010.6
20260509170035 52 254 3.0 9.0 0.01 0.24 0.18 87 1010.6
20260509165515 52 0 3.0 9.0 0.01 0.24 0.18 86 1010.4
20260509165016 52 218 3.0 9.0 0.01 0.24 0.18 86 1010.4
20260509164532 52 244 3.0 12.0 0.01 0.24 0.18 86 1010.5
20260509164014 52 195 4.0 12.0 0.01 0.24 0.18 86 1010.6
20260509163518 52 221 4.0 11.0 0.00 0.23 0.17 86 1010.6
20260509163034 52 227 3.0 12.0 0.00 0.23 0.17 87 1010.6
20260509162515 51 214 4.0 12.0 0.00 0.23 0.17 87 1010.7
20260509162018 51 196 2.0 9.0 0.00 0.23 0.17 87 1010.6
20260509161534 51 0 0.0 4.0 0.01 0.23 0.17 87 1010.6
20260509161014 51 196 2.0 6.0 0.01 0.23 0.17 87 1010.7
20260509160518 51 0 2.0 6.0 0.01 0.23 0.17 87 1010.7
20260509160030 51 231 2.0 7.0 0.01 0.23 0.17 87 1010.7
20260509155514 51 185 2.0 7.0 0.01 0.23 0.17 87 1010.8
20260509155014 51 171 3.0 8.0 0.02 0.23 0.17 87 1010.8
20260509154534 51 199 4.0 8.0 0.02 0.23 0.17 87 1010.8
20260509154015 51 180 3.0 7.0 0.02 0.23 0.17 87 1010.8
20260509153517 51 0 1.0 6.0 0.02 0.23 0.17 88 1010.8
20260509153030 50 205 2.0 8.0 0.02 0.23 0.17 87 1010.9
20260509152516 50 167 2.0 8.0 0.03 0.23 0.17 88 1010.9
20260509152016 50 196 2.0 8.0 0.03 0.23 0.17 88 1011.1
20260509151532 50 202 2.0 5.0 0.02 0.22 0.16 88 1011.3
20260509151014 50 0 1.0 5.0 0.02 0.22 0.16 88 1011.4
20260509150514 50 217 1.0 5.0 0.03 0.22 0.16 88 1011.4
20260509150033 50 271 0.0 3.0 0.03 0.22 0.16 89 1011.5
20260509145517 50 0 0.0 0.0 0.03 0.22 0.16 89 1011.4
20260509145015 50 0 0.0 0.0 0.02 0.21 0.15 89 1011.4
20260509144540 49 0 0.0 0.0 0.02 0.21 0.15 89 1011.4
20260509144015 49 0 0.0 0.0 0.03 0.21 0.15 89 1011.4
20260509143516 49 0 0.0 0.0 0.03 0.21 0.15 90 1011.3
20260509143030 49 0 0.0 0.0 0.03 0.21 0.15 89 1011.3
20260509142514 49 0 0.0 0.0 0.02 0.20 0.14 89 1011.2
20260509142014 49 0 0.0 0.0 0.02 0.20 0.14 88 1011.2
20260509141535 49 0 0.0 0.0 0.02 0.20 0.14 87 1011.2
20260509141020 49 0 0.0 0.0 0.03 0.20 0.14 88 1011.2
20260509140515 49 0 0.0 0.0 0.02 0.19 0.13 88 1011.2
20260509140033 49 0 0.0 2.0 0.02 0.19 0.13 88 1011.3
20260509135516 49 0 0.0 4.0 0.03 0.19 0.13 88 1011.1
20260509135015 49 162 2.0 4.0 0.03 0.19 0.13 87 1011.1
20260509134532 49 0 0.0 4.0 0.03 0.19 0.13 88 1011.2
20260509134015 49 0 0.0 5.0 0.03 0.18 0.12 87 1011.1
20260509133515 49 0 0.0 7.0 0.03 0.18 0.12 87 1011.1
20260509133030 49 176 2.0 9.0 0.04 0.18 0.12 87 1011.2
20260509132517 49 184 4.0 12.0 0.04 0.18 0.12 87 1011.0
20260509132016 49 213 4.0 12.0 0.04 0.18 0.12 87 1011.1
20260509131529 49 190 4.0 10.0 0.04 0.18 0.12 88 1011.1
20260509131015 49 194 4.0 10.0 0.04 0.17 0.11 88 1011.2
20260509130517 49 178 2.0 7.0 0.04 0.17 0.11 88 1011.1
20260509130031 48 185 3.0 7.0 0.04 0.17 0.11 89 1011.1
20260509125516 48 201 3.0 9.0 0.03 0.16 0.10 89 1011.1
20260509125016 48 182 4.0 9.0 0.03 0.16 0.10 89 1011.1
20260509124532 48 198 2.0 7.0 0.03 0.16 0.10 90 1011.2
20260509124017 48 178 3.0 7.0 0.02 0.15 0.09 90 1011.2
20260509123515 48 192 1.0 4.0 0.02 0.15 0.09 90 1011.3
20260509123030 48 0 0.0 4.0 0.02 0.14 0.08 91 1011.3
20260509122515 48 284 1.0 5.0 0.02 0.14 0.08 91 1011.4
20260509122015 48 230 1.0 9.0 0.02 0.14 0.08 91 1011.3
20260509121536 48 102 3.0 9.0 0.02 0.14 0.08 91 1011.4
20260509121015 48 298 0.0 0.0 0.01 0.13 0.07 91 1011.2
20260509120515 48 0 0.0 0.0 0.01 0.13 0.07 91 1011.2
20260509120030 48 0 0.0 3.0 0.01 0.13 0.07 91 1011.5
20260509115515 48 0 0.0 3.0 0.01 0.13 0.07 91 1011.5
20260509115016 47 143 0.0 3.0 0.01 0.13 0.07 91 1011.3
20260509114529 47 0 0.0 2.0 0.01 0.13 0.07 91 1011.5
20260509114014 47 0 0.0 3.0 0.01 0.13 0.07 91 1011.5
20260509113516 47 0 0.0 3.0 0.01 0.13 0.07 91 1011.3
20260509113033 47 313 1.0 3.0 0.00 0.12 0.06 91 1011.4
20260509112516 47 212 0.0 3.0 0.01 0.12 0.06 92 1011.2
20260509112015 47 313 1.0 3.0 0.01 0.12 0.06 92 1011.4
20260509111531 47 0 0.0 0.0 0.01 0.12 0.06 91 1011.4
20260509111016 47 0 0.0 0.0 0.01 0.12 0.06 92 1011.4
20260509110515 47 0 0.0 1.0 0.01 0.12 0.06 91 1011.5
20260509110034 47 0 0.0 1.0 0.01 0.12 0.06 92 1011.5
20260509105513 47 0 0.0 2.0 0.01 0.12 0.06 91 1011.5
20260509105019 47 0 0.0 2.0 0.01 0.12 0.06 91 1011.6
20260509104537 47 0 0.0 2.0 0.01 0.12 0.06 91 1011.6
20260509104014 46 0 0.0 2.0 0.01 0.12 0.06 91 1011.6
20260509103513 46 0 0.0 2.0 0.01 0.12 0.06 91 1011.6
20260509103029 46 0 0.0 0.0 0.01 0.12 0.06 91 1011.6
20260509102514 46 0 0.0 0.0 0.00 0.11 0.05 91 1011.4
20260509102016 46 0 0.0 0.0 0.00 0.11 0.05 91 1011.4
20260509101534 46 0 0.0 1.0 0.00 0.11 0.05 91 1011.5
20260509101019 46 0 0.0 1.0 0.00 0.11 0.05 91 1011.4
20260509100512 46 0 0.0 1.0 0.00 0.11 0.05 91 1011.4
20260509100031 46 0 0.0 0.0 0.00 0.11 0.05 91 1011.2
20260509095514 46 0 0.0 0.0 0.00 0.11 0.05 91 1011.3
20260509095013 46 0 0.0 0.0 0.00 0.11 0.05 91 1011.3
20260509094532 46 0 0.0 0.0 0.00 0.11 0.05 91 1011.4
20260509094014 46 0 0.0 1.0 0.00 0.11 0.05 91 1011.5
20260509093520 46 0 0.0 2.0 0.00 0.11 0.05 91 1011.5
20260509093043 46 0 0.0 2.0 0.00 0.11 0.05 91 1011.6
20260509092513 46 0 0.0 0.0 0.00 0.11 0.05 91 1011.7
20260509092016 46 0 0.0 0.0 0.00 0.11 0.05 91 1011.7
20260509091530 46 0 0.0 0.0 0.00 0.11 0.05 91 1011.8
20260509091017 46 0 0.0 0.0 0.00 0.11 0.05 91 1011.9
20260509090514 46 0 0.0 0.0 0.00 0.11 0.05 90 1011.9
20260509090032 46 0 0.0 0.0 0.00 0.11 0.05 90 1012.0
20260509085517 46 0 0.0 0.0 0.00 0.11 0.05 90 1012.0
20260509085014 46 0 0.0 0.0 0.00 0.11 0.05 90 1012.1
20260509084543 46 0 0.0 2.0 0.00 0.11 0.05 90 1012.0
20260509084014 46 0 0.0 2.0 0.00 0.11 0.05 90 1011.9
20260509083515 46 154 0.0 0.0 0.00 0.11 0.05 90 1012.0
20260509083030 46 0 0.0 0.0 0.00 0.11 0.05 90 1012.1
20260509082515 46 0 0.0 1.0 0.00 0.11 0.05 90 1012.0
20260509082015 46 0 0.0 1.0 0.00 0.11 0.05 90 1011.8
20260509081538 46 0 0.0 0.0 0.00 0.11 0.05 90 1012.0
20260509081016 46 0 0.0 0.0 0.00 0.11 0.05 90 1012.0
20260509080515 46 0 0.0 1.0 0.00 0.11 0.05 90 1012.1
20260509080041 46 0 0.0 1.0 0.00 0.11 0.05 90 1012.1
20260509075517 46 182 0.0 3.0 0.00 0.11 0.05 90 1012.2
20260509075014 46 182 0.0 4.0 0.00 0.11 0.05 90 1012.2
20260509074528 46 209 0.0 5.0 0.00 0.11 0.05 89 1012.3
20260509074017 47 207 2.0 5.0 0.00 0.11 0.05 90 1012.1
20260509073515 46 196 0.0 3.0 0.00 0.11 0.05 89 1011.8
20260509073037 47 0 1.0 3.0 0.01 0.11 0.05 89 1011.6
20260509072514 47 0 0.0 0.0 0.01 0.11 0.05 89 1011.6
20260509072013 47 0 0.0 0.0 0.02 0.11 0.05 89 1011.6
20260509071531 47 0 0.0 0.0 0.03 0.11 0.05 89 1011.7
20260509071014 47 0 0.0 0.0 0.03 0.11 0.05 89 1011.9
20260509070516 47 0 0.0 0.0 0.04 0.11 0.05 88 1011.8
20260509070030 47 0 0.0 0.0 0.04 0.11 0.05 88 1012.0
20260509065514 47 0 0.0 0.0 0.05 0.11 0.05 88 1012.1
20260509065014 47 0 0.0 0.0 0.05 0.11 0.05 88 1012.3
20260509064533 47 0 0.0 0.0 0.05 0.11 0.05 87 1012.3
20260509064016 48 0 0.0 0.0 0.05 0.11 0.05 87 1012.4
20260509063514 48 0 0.0 2.0 0.05 0.11 0.05 87 1012.4
20260509063034 48 0 0.0 3.0 0.04 0.10 0.04 86 1012.4
20260509062516 48 325 0.0 6.0 0.04 0.10 0.04 86 1012.5
20260509062017 48 0 2.0 7.0 0.03 0.09 0.03 85 1012.5
20260509061528 48 210 2.0 7.0 0.02 0.08 0.02 85 1012.7
20260509061018 48 243 2.0 10.0 0.02 0.08 0.02 85 1012.7
20260509060515 48 236 2.0 10.0 0.01 0.07 0.01 86 1012.5
20260509060030 47 188 4.0 9.0 0.01 0.07 0.01 86 1012.5
20260509055515 47 194 3.0 7.0 0.00 0.07 0.00 87 1012.3
20260509055014 46 190 0.0 5.0 0.00 0.07 0.00 88 1012.5
20260509054535 46 216 1.0 3.0 0.00 0.07 0.00 88 1012.1
20260509054015 46 0 0.0 3.0 0.00 0.07 0.00 87 1012.1
20260509053516 46 0 2.0 3.0 0.00 0.07 0.00 87 1012.3
20260509053037 46 210 2.0 3.0 0.00 0.07 0.00 87 1012.5
20260509052515 46 0 0.0 2.0 0.00 0.07 0.00 87 1012.5
20260509052015 46 0 0.0 2.0 0.00 0.07 0.00 87 1012.4
20260509051536 46 187 0.0 4.0 0.00 0.07 0.00 87 1012.2
20260509051015 46 0 0.0 4.0 0.00 0.07 0.00 86 1012.2
20260509050515 46 198 1.0 3.0 0.00 0.07 0.00 86 1012.2
20260509050035 46 214 0.0 3.0 0.00 0.07 0.00 86 1012.2
20260509045519 46 0 0.0 2.0 0.00 0.09 0.00 86 1012.1
20260509045017 46 0 1.0 2.0 0.00 0.09 0.00 86 1012.1
20260509044532 45 0 0.0 3.0 0.00 0.09 0.00 86 1012.3
20260509044016 45 0 0.0 3.0 0.00 0.09 0.00 86 1012.3
20260509043516 45 0 0.0 0.0 0.00 0.09 0.00 86 1012.4
20260509043041 45 0 0.0 0.0 0.00 0.09 0.00 86 1012.5
20260509042515 45 0 0.0 0.0 0.00 0.09 0.00 86 1012.6
20260509042016 45 0 0.0 0.0 0.00 0.09 0.00 87 1012.6
20260509041538 44 0 0.0 0.0 0.00 0.09 0.00 86 1012.3
20260509041015 44 0 0.0 0.0 0.00 0.09 0.00 87 1012.7
20260509040515 44 0 0.0 0.0 0.00 0.09 0.00 87 1012.7
20260509040040 44 0 0.0 2.0 0.00 0.09 0.00 87 1012.6
20260509035515 44 0 0.0 2.0 0.00 0.09 0.09 87 1012.7
20260509035018 44 205 0.0 2.0 0.00 0.09 0.09 86 1012.7
20260509034535 44 205 1.0 3.0 0.00 0.09 0.09 86 1012.5
20260509034017 44 205 1.0 3.0 0.00 0.09 0.09 86 1012.6